www.pogodaiklimat.ru

Погода и климат >> Архив погоды >> Россия >> Ханты-Мансийский АО >> Леуши


ПОГОДА в Леушах

  • Прогноз погоды в Леушах
  • Монитор погоды в Леушах
  • Климат города

АРХИВ ПОГОДЫ в Леушах

Время (UTC), дата Ветер
(напр.,м/с)
 
Видим.   Явления Облачность Т
(С)
Тd
(С)
f
(%)
Тe
(С)
Тes
(С)
Комфортность P
(гПа)
Po
(гПа)
Тmin
(С)
Tmax
(С)
R
(мм)
R24
(мм)
S
(см)
21 12.10 Ю 3 20 км 10/0
[Ci fib]
+7.2 -0.4 58 +5 +5 1022.5 1013.8
00 13.10 Ю 3 н/о н/о +5.6 -0.6 64 +3 +3 1022.1 1013.4
03 13.10 Ю 3 50 км 10/6 600 м
[Sc Ci sp]
+4.3 -0.4 71 +1 +1 1021.8 1013.0 +4.3
06 13.10 Ю 2 50 км 10/1 600 м
[Sc diur, vesp Ac As Cs]
+7.6 +1.2 64 +6 +7 1021.5 1012.8
09 13.10 ЮВ 4 50 км 10/1 600 м
[Sc diur, vesp Cs]
+10.3 +1.6 55 +8 +9 1020.3 1011.7
12 13.10 ЮВ 3 50 км 10/0
[Ac As Cs]
+9.4 +1.9 59 +7 +7 1019.2 1010.6
15 13.10 ЮВ 4 20 км 10/3 600 м
[Sc diur, vesp Cs]
+5.6 -2.6 56 +2 +2 1019.1 1010.4 +10.5
18 13.10 Ю 3 20 км 3/1 600 м
[Sc diur, vesp Cs]
+3.8 -4.8 53 +1 +1 1018.5 1009.7
21 13.10 ЮВ 1 20 км 4/1 600 м
[Sc diur, vesp Ci fib]
+0.6 -5.0 66 -1 -1 1017.6 1008.7
00 14.10 ЮВ 2 20 км 10/3 600 м
[Sc diur, vesp Ac cast Ci fib]
+0.3 -4.8 69 -3 -3 1016.7 1007.9
03 14.10 Ю 2 50 км 10/4 600 м
[Sc diur, vesp Ac cast Ci fib]
0.0 -4.4 72 -3 -3 1016.7 1007.8 -0.5
06 14.10 Ю 1 50 км 10/3 600 м
[Sc diur, vesp Cc]
+4.2 -3.8 56 +3 +5 1016.3 1007.6
09 14.10 В 1 50 км 10/0
[Ac lent Cc]
+7.6 -1.5 52 +7 +9 1015.3 1006.7
12 14.10 В 1 50 км 10/0
[Ac lent Cc]
+5.2 -1.0 64 +4 +4 1015.1 1006.4
15 14.10 ЮВ 1 20 км 3/0
[Ci fib]
+2.4 -2.6 70 +1 +1 1015.5 1006.7 +8.0
18 14.10 ЮВ 1 20 км 3/0
[Ci fib]
+0.6 -2.9 77 -1 -1 1015.0 1006.2
21 14.10 СЗ 1 20 км 3/0
[Ci fib]
-1.0 -2.9 87 -3 -3 1014.4 1005.6
00 15.10 штиль 0 20 км 4/0
[Ci fib]
-2.4 -3.5 92 -4 -4 1014.3 1005.4
03 15.10 СЗ 2 50 км 5/0
[Ci fib]
-1.3 -2.0 95 -5 -5 1014.6 1005.7 -2.9
06 15.10 С 1 50 км 9/0
[Ci fib]
+2.6 -0.1 82 +1 +3 1014.2 1005.5
09 15.10 С 2 50 км 9/0
[Ci fib]
+7.4 -1.2 54 +6 +8 1013.8 1005.2
12 15.10 СЗ 1 50 км 9/0
[Ci fib]
+6.4 -0.9 60 +6 +6 1014.0 1005.4
15 15.10 С 1 20 км 9/6 600 м
[Sc diur, vesp Ci fib]
+4.0 0.0 75 +3 +3 1014.9 1006.2 +7.6
18 15.10 СВ 2 20 км 10/10 600 м
[Sc diur, vesp]
+1.4 +0.2 92 -2 -2 1016.0 1007.2
21 15.10 СВ 1 10 км дымка 10/10 600 м
[Sc]
0.0 -0.5 96 -2 -2 1016.8 1007.9
00 16.10 В 1 4000 м дымка 10/10 600 м
[Sc]
-0.7 -1.1 97 -3 -3 1017.5 1008.6
03 16.10 В 1 4000 м туман ясно -1.0 -1.3 98 -3 -3 1019.3 1010.4 -1.1
06 16.10 В 1 500 м туман ?/? +0.5 +0.1 97 -2 -2 1020.3 1011.5 -1.1
09 16.10 В 2 50 км {туман} 10/1 600 м
[Sc diur, vesp Ci]
+5.9 +1.8 75 +4 +5 1020.5 1011.9
12 16.10 В 2 50 км {туман} 10/1 600 м
[Sc diur, vesp Cc]
+3.6 +0.6 81 +1 +1 1021.4 1012.6
15 16.10 ЮВ 2 20 км ясно +0.3 -0.9 92 -3 -3 1022.4 1013.5 +6.1
18 16.10 ЮВ 2 20 км 3/3 600 м
[Sc]
+0.2 -1.1 91 -4 -4 1022.4 1013.5
21 16.10 ЮВ 2 20 км 3/3 600 м
[Sc]
-0.8 -2.0 92 -5 -5 1022.0 1013.1
00 17.10 ЮВ 2 20 км 3/3 600 м
[Sc]
-1.7 -2.5 94 -6 -6 1021.0 1012.1
03 17.10 ЮВ 2 4000 м дымка 8/1 600 м
[Sc diur, vesp Cc]
-2.0 -2.6 96 -6 -6 1019.5 1010.6 -2.4
06 17.10 ЮВ 3 10 км дымка 10/0
[Cs]
+3.6 -0.2 76 -0 +1 1017.6 1008.9
09 17.10 Ю 4 50 км 10/0
[Ac As Cc]
+7.2 +1.3 66 +4 +5 1015.1 1006.5
12 17.10 ЮВ 3 50 км 10/0
[Ac lent Cs]
+6.7 +0.3 64 +4 +4 1013.0 1004.4
15 17.10 ЮВ 5 20 км 10/0
[Cs]
+4.8 +0.1 72 0 0 1011.9 1003.2 +7.9
18 17.10 Ю 5
{11}
20 км 4/0
[Ci fib]
+4.0 -0.6 72 -1 -1 1009.5 1000.8
21 17.10 ЮВ 5 20 км 4/0
[Ci fib]
+2.6 -1.3 75 -3 -3 1006.7 998.0
00 18.10 ЮВ 4 20 км 4/0
[Ci fib]
+1.4 -1.4 82 -4 -4 1004.8 996.1
03 18.10 Ю 4 50 км 10/0
[Ac As Cs]
+0.3 -1.6 87 -5 -5 1003.8 995.1 +0.3
06 18.10 Ю 3 10 км дымка 10/0
[As trans]
+2.1 +0.8 91 -2 -2 1003.2 994.5
09 18.10 Ю 3 10 км слабый дождь 10/0
[As trans]
+3.6 +2.5 93 -0 0 1001.6 993.0
12 18.10 Ю 2 4000 м слабый дождь 10/0
[As trans]
+3.9 +3.1 95 +1 +1 1001.1 992.5
15 18.10 Ю 2 10 км дымка {дождь} 10/0
[As trans]
+4.2 +3.5 95 +1 +1 1001.4 992.8 +4.2 4
18 18.10 ЮЗ 1 10 км дымка 10/0
[As trans]
+4.4 +3.8 96 +3 +3 1001.3 992.7
21 18.10 штиль 0 10 км туман 10/0
[As trans]
+3.6 +3.1 97 +2 +2 1001.0 992.4
00 19.10 Ю 1 4000 м туман 10/0
[As trans]
+1.0 +0.6 97 -1 -1 1000.8 992.2
03 19.10 Ю 1 4000 м туман 10/0
[As trans]
-0.3 -0.6 98 -3 -3 1000.6 991.9 -0.3 0.0
06 19.10 Ю 1 4000 м дымка {туман} 10/3 600 м
[Sc diur, vesp Ci]
+3.5 +3.0 97 +2 +3 999.7 991.1
09 19.10 Ю 2 50 км {туман} 10/4 600 м
[Sc diur, vesp Cc]
+6.2 +2.6 78 +4 +5 998.2 989.7
12 19.10 Ю 3 50 км {туман} 10/9 600 м
[Sc Cs]
+4.9 +1.9 81 +1 +1 997.3 988.7
15 19.10 ЮВ 4 20 км 10/10 600 м
[Sc]
+4.6 +2.1 84 0 0 994.8 986.3 +6.5

 

Местоположение метеостанции Леуши (Ханты-Мансийский АО, Россия): широта 59.63 долгота 65.72 высота над уровнем моря 72 м.

В архиве по умолчанию представлена погода в Леушах за последнюю неделю. Архивные данные за месяц целиком и за предыдущие месяцы, начиная с января 2011 года, Вы можете получить, выбрав интересующий диапазон дат из раскрывающегося списка и нажав кнопку "Ввод!".

Внимание! Время в таблицах - всемирное. Для получения местного времени необходимо прибавить поправку, которая в Леушах равна 5 ч.

Смотрите также архив погоды в соседних городах и на ближайших метеорологических станциях:

Погода в Кондинском (Ханты-Мансийский АО, Россия) (96 км)
Погода в Куминской (Ханты-Мансийский АО, Россия) (103 км)
Погода в Шаиме (Ханты-Мансийский АО, Россия) (113 км)
Погода в Таборах (Свердловская область, Россия) (141 км)
Погода в Тавде (Свердловская область, Россия) (175 км)
Погода в Увате (Тюменская область, Россия) (188 км)
Погода в Гари (Свердловская область, Россия) (192 км)
Погода в Алтае (Ханты-Мансийский АО, Россия) (197 км)
Погода в Демьянском (Тюменская область, Россия) (200 км)
Погода в Туринске (Свердловская область, Россия) (211 км)

Пояснения к столбцам:

Ветер - указаны скорость ветра в м/с - средняя за 10 мин, порывы в срок и между сроками (в фигурных скобках) и направление, откуда дует ветер: С - северный, СВ - северо-восточный, В - восточный, ЮВ - юго-восточный, Ю - южный, ЮЗ - юго-западный, З - западный, СЗ - северо-западный.
Видимость - горизонтальная дальность видимости в метрах или километрах. При видимости от 1 до 10 км при отсутствии осадков обычно наблюдается дымка, при ухудшении видимости до 1 км и менее - туман. В сухую погоду видимость может ухудшаться дымом, пылью или мглою.
Явления - указаны атмосферные явления, наблюдавшиеся в срок или в последний час перед сроком; фигурными скобками обозначены явления, наблюдавшиеся между сроками (за 1-3 часа до срока); квадратными скобками обозначены град или гололедные отложения с указанием их диаметра в мм.
Облачность - указаны через наклонную черту общая и нижняя облачность в баллах и высота нижней границы облаков в метрах; квадратными скобками обозначены формы облаков: Ci - перистые, Cs - перисто-слоистые, Cc - перисто-кучевые, Ac - высококучевые, As - высокослоистые, Sc - слоисто-кучевые, Ns - слоисто-дождевые, Cu - кучевые, Cb - кучево-дождевые. Подробнее классификацию облаков см. в Атласе облаков (PDF).
T - Температура воздуха - температура, измеренная на высоте 2 м над землей.
Td - Температура точки росы - температура, при понижении до которой содержащийся в воздухе водяной пар достигнет насыщения.
f - Относительная влажность воздуха - влажноcть воздуха, измеренная на высоте 2 м над землей.
Te - Эффективная температура - температура, которую ощущает одетый по сезону человек в тени. Характеристика душности погоды. При расчете учитывается влияние влажности воздуха и скорости ветра на теплоощущения человека.
Tes - Эффективная температура на солнце - температура, которую ощущает человек, с поправкой на солнечный нагрев. Характеристика знойности погоды. Зависит от высоты солнца над горизонтом, облачности и скорости ветра. Ночью, в пасмурную погоду, а также при ветре 12 м/с и более поправка равна нулю.
P - Атмосферное давление - приведенное к уровню моря атмосферное давление.
Po - Атмосферное давление - измеренное на уровне метеостанции атмосферное давление.
Tmin - Минимальная температура - минимум температуры воздуха на высоте 2 м над землей.
Tmax - Максимальная температура - максимум температуры воздуха на высоте 2 м над землей.
R - Количество осадков - Количество выпавших осадков за период времени, мм. При наведении курсора мыши на число - период времени, за который выпало указанное количество осадков.
R24 - Количество осадков - Количество выпавших осадков за 24 часа, мм.
S - Снежный покров - Высота снежного покрова, см. При наведении курсора мыши на число - состояние снежного покрова и степень покрытия местности в баллах.